[[{"header":{"parameterUnit":"m.s-1","parameterCategory":2,"la1":30.2991,"la2":30.254,"lo1":-89.0895,"lo2":-89.0444,"dy":0.0017,"dx":0.0017,"nx":28,"ny":28,"refTime":"2025-04-05T03:00:00:Z","depth":"0","parameterNumber":2,"parameterNumberName":"U-component_of_CURRENTS"},"data":[0,0,0,0,0,0,0,0,0,0,0,0,0,0,0,0,0,0,0,0,0,0,0,0,0,0,0,0,0,0,0,0,0,0,0,0,0,0,0,0,0,0,0,0,0,0,0,0,0,0,0,0,0,0,0,0,0,0,0.2431,0.2432,0,0.2441,0.2441,0.2441,0.2427,0.2426,0.2426,0.2426,0.2421,0.2421,0.2422,0,0,0,0,0,0,0,0,0,0,0,0,0,0.2419,0.2419,0.2431,0.2432,0.2432,0.2441,0.2441,0.2441,0.2427,0.2426,0.2426,0.2426,0.2421,0.2421,0.2422,0,0,0,0,0,0,0,0,0,0,0,0,0,0.2425,0.2419,0.2431,0.2427,0.2427,0.2441,0.2441,0.2441,0.2427,0.2426,0.2426,0.2425,0.2421,0.2421,0.2422,0.2434,0,0,0.2423,0.2423,0,0,0,0,0,0,0,0,0.2424,0.2425,0.2427,0.2427,0.2427,0.2433,0.2435,0.2438,0.2427,0.2425,0.2426,0.2425,0.2425,0.2425,0.2426,0.2434,0.2434,0.2423,0.2423,0.2423,0.2423,0,0,0,0,0,0,0,0.2424,0.2424,0.2433,0.2428,0.2428,0.2431,0.2431,0.2436,0.2427,0.2425,0.2425,0.2428,0.2425,0.2426,0.2426,0.2434,0.2423,0.2423,0.2423,0.2423,0.2478,0.248,0,0,0,0,0,0,0.2426,0.2424,0.2433,0.2434,0.2426,0.2432,0.2432,0.2431,0.2427,0.2426,0.2429,0.2428,0.2426,0.2426,0.2426,0.2459,0.2423,0.2423,0.2423,0.2477,0.2479,0.248,0,0,0,0,0,0,0.2425,0.2426,0.2433,0.2431,0.2432,0.2433,0.2432,0.2431,0.2435,0.243,0.2429,0.2434,0.2425,0.2425,0.2437,0.2458,0.2423,0.2424,0.2476,0.2478,0.2479,0.2514,0,0,0,0,0,0,0.2425,0.2426,0.2427,0.2431,0.2432,0.2445,0.2432,0.2432,0.2439,0.2437,0.2434,0.2433,0.2425,0.2437,0.2438,0.2458,0.2424,0.2474,0.2477,0.2479,0.2512,0.2517,0.2522,0,0,0,0,0,0.2424,0.2426,0.2427,0.2428,0.2433,0.2446,0.2447,0.2445,0.244,0.2445,0.2445,0.2433,0.2453,0.2438,0.2439,0.246,0.2473,0.2476,0.2479,0.2509,0.2516,0.2522,0,0,0,0,0,0,0.242,0.2426,0.2426,0.2429,0.244,0.2444,0.2449,0.245,0.2454,0.2453,0.2445,0.2444,0.2466,0.246,0.2444,0.2485,0.2463,0.2466,0.2486,0.2493,0.2498,0.2504,0.2424,0,0,0,0,0,0.2421,0.2425,0.2434,0.2437,0.2443,0.2448,0.2454,0.2455,0.246,0.2461,0.2459,0.2464,0.248,0.2482,0.2491,0.2508,0.2516,0.2525,0.253,0.2534,0.2541,0.2584,0.2594,0.249,0.249,0.249,0,0,0.2421,0.2425,0.2426,0.2437,0.2444,0.2458,0.245,0.2462,0.2475,0.2461,0.2475,0.2483,0.249,0.2512,0.2522,0.2507,0.2567,0.2538,0.2542,0.2546,0.2588,0.2598,0.2607,0.2492,0.2491,0.2491,0,0,0.2424,0.2426,0.2432,0.2444,0.246,0.2466,0.2472,0.2483,0.2488,0.2507,0.2506,0.2528,0.2538,0.2552,0.256,0.2601,0.2597,0.2604,0.2631,0.2672,0.2681,0.2689,0.2703,0.2712,0.2603,0.2603,0.2603,0,0.2425,0.2429,0.2437,0.2451,0.2462,0.2472,0.2486,0.2499,0.2512,0.2529,0.2515,0.2563,0.2561,0.2605,0.2615,0.2613,0.2627,0.2603,0.2679,0.2687,0.2694,0.2707,0.2717,0.2605,0.2605,0.2604,0.2604,0,0.2433,0.2441,0.2447,0.2466,0.2483,0.2495,0.2518,0.2538,0.2547,0.2564,0.2609,0.2614,0.2645,0.2649,0.264,0.2698,0.2687,0.2683,0.2661,0.2707,0.2717,0.2727,0.2608,0.2607,0.2606,0.2606,0,0,0.2419,0.2446,0.2447,0.2456,0.249,0.2501,0.254,0.2576,0.2607,0.2629,0.267,0.2699,0.2712,0.2722,0.2724,0.275,0.2804,0.2737,0.2738,0.2747,0.2882,0.285,0.2857,0.2816,0.2818,0.2819,0.2864,0,0.2419,0.2438,0.2457,0.2479,0.249,0.2524,0.2557,0.2599,0.2635,0.2679,0.2711,0.2747,0.2738,0.2752,0.2785,0.2804,0.2832,0.2791,0.2839,0.2841,0.2804,0.2868,0.2813,0.2847,0.2873,0.2875,0.2876,0,0.2414,0.2429,0.2446,0.2482,0.2491,0.251,0.2571,0.2606,0.2685,0.2718,0.2778,0.28,0.2854,0.283,0.2903,0.2879,0.2886,0.2893,0.2895,0.2861,0.2827,0.2808,0.2862,0.2802,0.289,0.2889,0.2888,0,0.2384,0.2416,0.2425,0.2437,0.2486,0.2505,0.2538,0.2617,0.266,0.2747,0.2786,0.286,0.2892,0.2932,0.2955,0.2933,0.3025,0.2996,0.2975,0.2971,0.2932,0.2922,0.2932,0.3049,0.3049,0.3049,0.3049,0,0.2367,0.2373,0.2407,0.2412,0.2435,0.2482,0.2528,0.2583,0.2671,0.2724,0.2799,0.2852,0.2921,0.2978,0.2987,0.3021,0.306,0.2996,0.2994,0.294,0.2931,0.2882,0.2861,0.3051,0.305,0.305,0.305,0,0.2328,0.2349,0.2361,0.2404,0.2417,0.2434,0.251,0.2547,0.2641,0.2714,0.274,0.2864,0.294,0.3,0.3067,0.3058,0.2997,0.3085,0.3006,0.2993,0.2891,0.2874,0.2653,0.2586,0.3062,0.3062,0.3062,0,0.2307,0.2307,0.234,0.2345,0.2359,0.2396,0.242,0.2519,0.2567,0.2711,0.2737,0.2851,0.2926,0.3033,0.3051,0.3085,0.298,0.3033,0.2978,0.2894,0.2875,0.264,0.2583,0.2935,0.2934,0.2933,0.2932,0,0.227,0.2278,0.2287,0.2295,0.2308,0.2332,0.2378,0.2412,0.2526,0.2595,0.2696,0.2773,0.2907,0.2949,0.3015,0.3018,0.2876,0.3009,0.2958,0.2813,0.2523,0.2455,0.2876,0.2922,0.2923,0.2924,0.2924,0.2925,0.2237,0.2229,0.2235,0.2235,0.2247,0.2247,0.2244,0.2308,0.2368,0.2454,0.2587,0.2678,0.284,0.2934,0.2921,0.2879,0.278,0.2811,0.2808,0.2582,0.2479,0.2865,0.2885,0.2886,0.2886,0.2887,0.2887,0,0.2189,0.2178,0.2175,0.216,0.2135,0.2172,0.2193,0.218,0.2204,0.2336,0.2422,0.2586,0.2662,0.2762,0.2802,0.2713,0.2521,0.2641,0.234,0.231,0.2718,0.2681,0.2613,0.2614,0.2614,0.2614,0.2614,0.2614,0.2163,0.213,0.2119,0.205,0.2035,0.198,0.1971,0.1972,0.204,0.2122,0.2223,0.2341,0.2551,0.2643,0.2613,0.2563,0.2336,0.2179,0.2149,0.2521,0.2536,0.255,0.251,0.2408,0.2407,0.1612,0.1607,0.1603]},{"header":{"parameterUnit":"m.s-1","parameterCategory":2,"la1":30.2991,"la2":30.254,"lo1":-89.0895,"lo2":-89.0444,"dy":0.0017,"dx":0.0017,"nx":28,"ny":28,"refTime":"2025-04-05T03:00:00:Z","depth":"0","parameterNumber":3,"parameterNumberName":"V-component_of_CURRENTS"},"data":[0,0,0,0,0,0,0,0,0,0,0,0,0,0,0,0,0,0,0,0,0,0,0,0,0,0,0,0,0,0,0,0,0,0,0,0,0,0,0,0,0,0,0,0,0,0,0,0,0,0,0,0,0,0,0,0,0,0,0.0343,0.0343,0,0.0313,0.0313,0.0312,0.0288,0.0288,0.0288,0.0287,0.024,0.0239,0.0238,0,0,0,0,0,0,0,0,0,0,0,0,0,0.0341,0.0342,0.0344,0.0343,0.0343,0.0313,0.0312,0.0312,0.0288,0.0288,0.0288,0.0287,0.024,0.0239,0.0238,0,0,0,0,0,0,0,0,0,0,0,0,0,0.0329,0.0342,0.0344,0.0328,0.0327,0.0313,0.0312,0.0312,0.0288,0.0288,0.0288,0.0287,0.0241,0.0239,0.0237,0.0231,0,0,0.0232,0.0231,0,0,0,0,0,0,0,0,0.033,0.0329,0.0331,0.0329,0.0327,0.0305,0.0294,0.0284,0.0288,0.0301,0.0287,0.0287,0.0261,0.0258,0.0251,0.0229,0.0227,0.0232,0.0231,0.023,0.023,0,0,0,0,0,0,0,0.0331,0.033,0.033,0.033,0.0328,0.0309,0.0308,0.0292,0.0282,0.03,0.0299,0.0297,0.026,0.0253,0.025,0.0226,0.0232,0.023,0.0229,0.0229,0.0199,0.0199,0,0,0,0,0,0,0.0339,0.0331,0.0331,0.0329,0.0329,0.031,0.0308,0.0311,0.0282,0.0278,0.0297,0.0296,0.0256,0.0252,0.0248,0.0254,0.023,0.0229,0.0228,0.0198,0.0199,0.0199,0,0,0,0,0,0,0.0339,0.034,0.0332,0.033,0.0328,0.031,0.0315,0.0311,0.0307,0.028,0.0275,0.0297,0.0255,0.025,0.0241,0.0251,0.0228,0.0226,0.0198,0.0199,0.0199,0.0257,0,0,0,0,0,0,0.0339,0.034,0.0345,0.0331,0.0328,0.0333,0.0315,0.0311,0.0306,0.0304,0.0278,0.0273,0.0255,0.0244,0.0239,0.0249,0.0225,0.0198,0.0198,0.0199,0.0254,0.0259,0.0263,0,0,0,0,0,0.0339,0.0352,0.0346,0.0345,0.0336,0.0333,0.033,0.0316,0.0307,0.031,0.0292,0.0274,0.0243,0.0243,0.0237,0.0247,0.0198,0.0198,0.0199,0.0252,0.0258,0.0263,0,0,0,0,0,0,0.0352,0.035,0.0343,0.0353,0.0346,0.033,0.0331,0.032,0.0308,0.0305,0.0279,0.0273,0.0267,0.0248,0.0248,0.0238,0.0217,0.0216,0.0259,0.0264,0.0268,0.0283,0.0223,0,0,0,0,0,0.0358,0.0366,0.0358,0.0365,0.0364,0.0347,0.0344,0.0335,0.0322,0.0316,0.0299,0.0279,0.0264,0.0258,0.024,0.0238,0.0216,0.0238,0.0243,0.0246,0.0254,0.023,0.0233,0.0201,0.0201,0.0201,0,0,0.0364,0.0364,0.0368,0.0368,0.036,0.037,0.0345,0.0344,0.0352,0.0313,0.0317,0.0291,0.0266,0.0262,0.0258,0.0249,0.0243,0.0247,0.0251,0.0256,0.0231,0.0235,0.0237,0.0201,0.0201,0.0201,0,0,0.0385,0.0381,0.0397,0.0397,0.0392,0.0385,0.0388,0.0375,0.0369,0.0367,0.0341,0.0326,0.0304,0.029,0.028,0.0295,0.0264,0.0287,0.0324,0.0302,0.0304,0.0306,0.0283,0.0282,0.0292,0.0292,0.0292,0,0.0393,0.0413,0.04,0.0416,0.0422,0.0397,0.0417,0.0409,0.0395,0.0397,0.0375,0.0345,0.0319,0.0321,0.0323,0.0306,0.0287,0.031,0.0308,0.031,0.0311,0.0286,0.0285,0.0295,0.0295,0.0295,0.0294,0,0.0428,0.0444,0.0452,0.0468,0.0471,0.0482,0.0474,0.0473,0.0459,0.0452,0.0444,0.0404,0.039,0.0375,0.0353,0.0353,0.0334,0.0315,0.0299,0.0318,0.029,0.0288,0.0299,0.0298,0.0297,0.0297,0,0,0.0451,0.0474,0.0478,0.0499,0.0501,0.0512,0.0523,0.0533,0.0554,0.052,0.0536,0.0496,0.0473,0.0459,0.0425,0.0401,0.0386,0.0366,0.0364,0.0349,0.0335,0.0339,0.0337,0.0367,0.0367,0.0367,0.0312,0,0.0484,0.0531,0.053,0.0574,0.0599,0.0584,0.0603,0.0607,0.0601,0.0609,0.0561,0.056,0.0507,0.05,0.0468,0.0411,0.0383,0.0402,0.0313,0.0311,0.0318,0.0336,0.0404,0.0363,0.031,0.0309,0.0309,0,0.0521,0.0551,0.0601,0.064,0.065,0.0668,0.07,0.0718,0.0717,0.0712,0.0694,0.0655,0.062,0.0564,0.0477,0.0493,0.042,0.0366,0.0362,0.0346,0.0311,0.0335,0.0361,0.031,0.0305,0.0306,0.0306,0,0.0554,0.0601,0.0645,0.0658,0.0695,0.0713,0.0733,0.0749,0.0784,0.078,0.0794,0.074,0.0719,0.0622,0.0508,0.0492,0.0406,0.0369,0.0302,0.0301,0.0332,0.0335,0.0307,0.0301,0.0301,0.0302,0.0302,0,0.0594,0.063,0.0666,0.0692,0.0754,0.0761,0.0825,0.0836,0.0868,0.0919,0.0853,0.0873,0.0732,0.0663,0.0541,0.0427,0.0431,0.0316,0.0292,0.0354,0.0358,0.0293,0.0243,0.0299,0.03,0.03,0.0301,0,0.0622,0.0643,0.0701,0.075,0.0771,0.0817,0.0891,0.0944,0.0959,0.1017,0.1017,0.0979,0.0897,0.075,0.0602,0.0487,0.0345,0.0316,0.0399,0.0386,0.0274,0.0224,0.0184,0.0164,0.0235,0.0235,0.0235,0,0.0642,0.0674,0.0745,0.0788,0.0812,0.0883,0.0939,0.0986,0.1052,0.1089,0.1126,0.1066,0.1054,0.0846,0.0644,0.0446,0.0363,0.0356,0.0333,0.0288,0.0214,0.0209,0.0194,0.0392,0.0393,0.0394,0.0395,0,0.0682,0.0701,0.0752,0.084,0.0905,0.0992,0.1075,0.1142,0.12,0.126,0.1325,0.1317,0.1131,0.0995,0.0719,0.0566,0.036,0.0368,0.0306,0.0327,0.0336,0.03,0.0399,0.0404,0.0403,0.0402,0.0402,0.0401,0.0708,0.0749,0.0813,0.0899,0.098,0.1089,0.1173,0.1276,0.1398,0.1507,0.1489,0.1548,0.1337,0.0994,0.0755,0.0438,0.0412,0.0356,0.0296,0.0292,0.0292,0.041,0.0396,0.0395,0.0395,0.0394,0.0393,0,0.0743,0.0792,0.087,0.0974,0.1069,0.1108,0.1258,0.1359,0.1516,0.1656,0.1734,0.1763,0.1468,0.114,0.0702,0.0446,0.0352,0.0305,0.0319,0.0299,0.0399,0.0427,0.0441,0.0441,0.0441,0.0441,0.0441,0.0441,0.0762,0.0836,0.0878,0.103,0.1108,0.1249,0.1341,0.1501,0.1651,0.1894,0.204,0.2128,0.1993,0.1118,0.0588,0.0421,0.0272,0.023,0.0129,0.02,0.0201,0.0202,0.0219,0.0189,0.0188,0.0112,0.0111,0.011]}],[{"header":{"parameterUnit":"m.s-1","parameterCategory":2,"la1":30.2991,"la2":30.254,"lo1":-89.0895,"lo2":-89.0444,"dy":0.0017,"dx":0.0017,"nx":28,"ny":28,"refTime":"2025-04-05T03:00:00:Z","depth":"2","parameterNumber":2,"parameterNumberName":"U-component_of_CURRENTS"},"data":[0,0,0,0,0,0,0,0,0,0,0,0,0,0,0,0,0,0,0,0,0,0,0,0,0,0,0,0,0,0,0,0,0,0,0,0,0,0,0,0,0,0,0,0,0,0,0,0,0,0,0,0,0,0,0,0,0,0,0.2373,0.2373,0,0.2382,0.2382,0.2382,0.237,0.237,0.237,0.2369,0.2367,0.2367,0.2367,0,0,0,0,0,0,0,0,0,0,0,0,0,0.2362,0.2362,0.2373,0.2373,0.2374,0.2382,0.2382,0.2382,0.237,0.237,0.237,0.2369,0.2367,0.2367,0.2367,0,0,0,0,0,0,0,0,0,0,0,0,0,0.2367,0.2362,0.2373,0.237,0.237,0.2382,0.2382,0.2382,0.237,0.237,0.237,0.2369,0.2367,0.2367,0.2368,0.2377,0,0,0.2368,0.2369,0,0,0,0,0,0,0,0,0.2367,0.2367,0.237,0.237,0.237,0.2376,0.2377,0.238,0.237,0.2369,0.2369,0.2369,0.237,0.237,0.2371,0.2377,0.2377,0.2368,0.2369,0.2369,0.2369,0,0,0,0,0,0,0,0.2366,0.2367,0.2375,0.2371,0.2371,0.2374,0.2374,0.2378,0.237,0.2369,0.2368,0.2372,0.237,0.2371,0.2371,0.2377,0.2368,0.2369,0.2369,0.2369,0.2422,0.2424,0,0,0,0,0,0,0.2368,0.2366,0.2375,0.2375,0.2369,0.2374,0.2374,0.2373,0.237,0.237,0.2372,0.2371,0.237,0.237,0.237,0.2405,0.2369,0.2369,0.2369,0.2421,0.2423,0.2424,0,0,0,0,0,0,0.2368,0.2368,0.2374,0.2373,0.2374,0.2375,0.2374,0.2374,0.2379,0.2373,0.2372,0.2378,0.237,0.237,0.2382,0.2404,0.2369,0.2369,0.242,0.2422,0.2423,0.2458,0,0,0,0,0,0,0.2367,0.2368,0.237,0.2373,0.2374,0.2386,0.2375,0.2374,0.2382,0.2381,0.2379,0.2378,0.237,0.2382,0.2383,0.2403,0.237,0.2418,0.242,0.2423,0.2456,0.2461,0.2466,0,0,0,0,0,0.2367,0.2369,0.237,0.2371,0.2376,0.2387,0.2388,0.2386,0.2383,0.2388,0.2389,0.2378,0.2398,0.2383,0.2384,0.2405,0.2417,0.242,0.2423,0.2453,0.246,0.2466,0,0,0,0,0,0,0.2364,0.2369,0.2369,0.2373,0.2383,0.2385,0.2391,0.2392,0.2397,0.2397,0.2389,0.2389,0.2411,0.2405,0.2389,0.2429,0.2408,0.2411,0.2431,0.2437,0.2442,0.2448,0.237,0,0,0,0,0,0.2366,0.2369,0.2377,0.2381,0.2386,0.2391,0.2396,0.2398,0.2403,0.2404,0.2404,0.2409,0.2424,0.2426,0.2435,0.2452,0.2459,0.2468,0.2473,0.2478,0.2484,0.2525,0.2535,0.2433,0.2433,0.2433,0,0,0.2365,0.237,0.2371,0.2381,0.2387,0.24,0.2393,0.2405,0.2417,0.2404,0.242,0.2428,0.2434,0.2456,0.2465,0.2451,0.2509,0.2481,0.2485,0.2489,0.2529,0.2539,0.2548,0.2435,0.2435,0.2434,0,0,0.2369,0.2372,0.2378,0.2389,0.2404,0.241,0.2416,0.2426,0.2431,0.245,0.245,0.2472,0.2482,0.2495,0.2503,0.2543,0.2539,0.2546,0.2573,0.2613,0.2621,0.2629,0.2643,0.2652,0.2545,0.2545,0.2545,0,0.2371,0.2374,0.2382,0.2395,0.2405,0.2416,0.2429,0.2441,0.2454,0.2471,0.246,0.2506,0.2504,0.2546,0.2557,0.2555,0.2568,0.2546,0.2619,0.2627,0.2634,0.2647,0.2656,0.2547,0.2547,0.2547,0.2547,0,0.2378,0.2386,0.2392,0.241,0.2426,0.2438,0.2459,0.2479,0.2489,0.2506,0.255,0.2556,0.2586,0.2591,0.2582,0.2638,0.2627,0.2623,0.2602,0.2647,0.2657,0.2666,0.255,0.2549,0.2549,0.2548,0,0,0.2365,0.2391,0.2392,0.24,0.2433,0.2443,0.248,0.2515,0.2545,0.2568,0.2608,0.2637,0.2651,0.2661,0.2662,0.2689,0.2742,0.2676,0.2678,0.2687,0.2818,0.2784,0.2789,0.2754,0.2756,0.2757,0.2801,0,0.2366,0.2383,0.2401,0.2422,0.2432,0.2464,0.2496,0.2536,0.2572,0.2614,0.2647,0.2683,0.2675,0.269,0.2723,0.2741,0.2769,0.2729,0.2776,0.2777,0.2739,0.28,0.2564,0.2581,0.281,0.2811,0.2812,0,0.236,0.2374,0.2389,0.2423,0.2432,0.245,0.2509,0.2543,0.2619,0.2652,0.2712,0.2734,0.2788,0.2766,0.2837,0.2814,0.2822,0.2829,0.2831,0.2794,0.276,0.2576,0.2589,0.2827,0.2826,0.2825,0.2824,0,0.2331,0.2361,0.2369,0.2381,0.2427,0.2446,0.2478,0.2554,0.2595,0.2681,0.272,0.2792,0.2826,0.2865,0.2889,0.2868,0.2957,0.2928,0.2906,0.2902,0.2707,0.2684,0.2981,0.2981,0.2981,0.2981,0.2981,0,0.2315,0.232,0.2353,0.2358,0.2379,0.2425,0.2469,0.2523,0.2608,0.2659,0.2734,0.2784,0.2855,0.291,0.292,0.2951,0.299,0.2926,0.2923,0.2712,0.269,0.2906,0.2897,0.2982,0.2982,0.2982,0.2981,0,0.2276,0.2297,0.2308,0.2349,0.2362,0.238,0.2453,0.2489,0.2581,0.2651,0.2678,0.2797,0.2872,0.2931,0.2996,0.2986,0.3014,0.3011,0.2751,0.2718,0.2918,0.291,0.2986,0.2985,0.2985,0.2984,0.2984,0,0.2256,0.2256,0.2289,0.2293,0.2307,0.2344,0.2368,0.2464,0.2509,0.2648,0.2672,0.2784,0.2851,0.2953,0.2943,0.2968,0.3022,0.2764,0.2686,0.2935,0.2925,0.2917,0.291,0.243,0.2425,0.2421,0.2418,0,0.222,0.2229,0.2238,0.2246,0.2259,0.2281,0.2325,0.2357,0.2467,0.2531,0.2625,0.2696,0.2799,0.274,0.2791,0.2763,0.2743,0.2686,0.3021,0.2479,0.2418,0.2406,0.2415,0.2382,0.2386,0.2388,0.239,0.2392,0.2189,0.2181,0.2187,0.2188,0.2199,0.2198,0.2193,0.2247,0.23,0.2358,0.249,0.2512,0.2567,0.253,0.2462,0.2398,0.259,0.2467,0.2476,0.2489,0.2432,0.2375,0.2318,0.2321,0.2323,0.2326,0.2328,0,0.2138,0.2131,0.2128,0.2114,0.2084,0.2125,0.2143,0.2109,0.2117,0.2195,0.2251,0.2101,0.2087,0.2132,0.1991,0.201,0.194,0.1918,0.1806,0.1845,0.1879,0.1785,0.1502,0.1499,0.1496,0.1493,0,0,0.2111,0.2077,0.2065,0.1994,0.1985,0.192,0.191,0.1875,0.1892,0.1857,0.1848,0.1995,0.2092,0.1771,0.1738,0.16,0.1696,0.1524,0.2195,0.2104,0.2134,0.2216,0.212,0,0,0,0,0]},{"header":{"parameterUnit":"m.s-1","parameterCategory":2,"la1":30.2991,"la2":30.254,"lo1":-89.0895,"lo2":-89.0444,"dy":0.0017,"dx":0.0017,"nx":28,"ny":28,"refTime":"2025-04-05T03:00:00:Z","depth":"2","parameterNumber":3,"parameterNumberName":"V-component_of_CURRENTS"},"data":[0,0,0,0,0,0,0,0,0,0,0,0,0,0,0,0,0,0,0,0,0,0,0,0,0,0,0,0,0,0,0,0,0,0,0,0,0,0,0,0,0,0,0,0,0,0,0,0,0,0,0,0,0,0,0,0,0,0,0.0266,0.0266,0,0.0235,0.0235,0.0235,0.0211,0.0211,0.0211,0.0211,0.0164,0.0163,0.0162,0,0,0,0,0,0,0,0,0,0,0,0,0,0.0266,0.0267,0.0266,0.0266,0.0266,0.0235,0.0235,0.0234,0.0211,0.0211,0.0211,0.0211,0.0165,0.0163,0.0162,0,0,0,0,0,0,0,0,0,0,0,0,0,0.0253,0.0267,0.0266,0.0251,0.025,0.0236,0.0235,0.0234,0.0211,0.0211,0.0211,0.0211,0.0165,0.0163,0.0162,0.0154,0,0,0.0156,0.0156,0,0,0,0,0,0,0,0,0.0254,0.0253,0.0254,0.0252,0.0251,0.0228,0.0218,0.0207,0.0212,0.0225,0.0211,0.0211,0.0185,0.0182,0.0175,0.0152,0.015,0.0156,0.0155,0.0154,0.0154,0,0,0,0,0,0,0,0.0255,0.0254,0.0253,0.0254,0.0252,0.0233,0.0231,0.0215,0.0205,0.0224,0.0222,0.0221,0.0184,0.0176,0.0173,0.0149,0.0156,0.0155,0.0154,0.0153,0.0124,0.0125,0,0,0,0,0,0,0.0263,0.0255,0.0254,0.0252,0.0253,0.0233,0.0231,0.0235,0.0205,0.0201,0.0221,0.022,0.018,0.0175,0.0172,0.0179,0.0154,0.0153,0.0152,0.0124,0.0124,0.0125,0,0,0,0,0,0,0.0263,0.0264,0.0255,0.0253,0.0251,0.0234,0.0238,0.0234,0.023,0.0204,0.0199,0.0221,0.0179,0.0174,0.0165,0.0176,0.0152,0.015,0.0124,0.0124,0.0124,0.0182,0,0,0,0,0,0,0.0264,0.0264,0.0269,0.0254,0.0252,0.0255,0.0238,0.0234,0.023,0.0228,0.0202,0.0198,0.0179,0.0168,0.0164,0.0174,0.0149,0.0123,0.0124,0.0124,0.018,0.0185,0.0189,0,0,0,0,0,0.0264,0.0275,0.027,0.0269,0.0259,0.0256,0.0253,0.0239,0.023,0.0234,0.0216,0.0199,0.0168,0.0167,0.0162,0.0172,0.0123,0.0124,0.0124,0.0178,0.0184,0.0189,0,0,0,0,0,0,0.0277,0.0274,0.0267,0.0276,0.027,0.0253,0.0253,0.0244,0.0232,0.0229,0.0203,0.0198,0.0192,0.0173,0.0173,0.0164,0.0142,0.0142,0.0185,0.019,0.0194,0.0208,0.0148,0,0,0,0,0,0.0283,0.029,0.0282,0.0288,0.0287,0.0271,0.0267,0.0258,0.0246,0.0241,0.0223,0.0204,0.019,0.0184,0.0166,0.0164,0.0141,0.0165,0.0169,0.0173,0.018,0.0156,0.0159,0.0127,0.0127,0.0127,0,0,0.0289,0.0288,0.0292,0.0291,0.0283,0.0292,0.0268,0.0267,0.0275,0.0237,0.0241,0.0217,0.0191,0.0188,0.0184,0.0175,0.017,0.0174,0.0178,0.0183,0.0157,0.016,0.0163,0.0127,0.0127,0.0127,0,0,0.0309,0.0305,0.032,0.032,0.0315,0.0308,0.0311,0.0299,0.0293,0.0291,0.0267,0.0252,0.023,0.0217,0.0207,0.0223,0.0191,0.0216,0.0253,0.023,0.0232,0.0234,0.021,0.0209,0.0221,0.0221,0.0221,0,0.0317,0.0336,0.0323,0.0338,0.0344,0.032,0.0339,0.0332,0.0318,0.0321,0.03,0.0271,0.0245,0.0248,0.0251,0.0234,0.0214,0.0238,0.0236,0.0238,0.0239,0.0213,0.0212,0.0224,0.0224,0.0223,0.0223,0,0.035,0.0365,0.0374,0.0389,0.0392,0.0403,0.0395,0.0395,0.0382,0.0375,0.0369,0.033,0.0316,0.0302,0.0281,0.0281,0.0262,0.0243,0.0226,0.0246,0.0217,0.0215,0.0228,0.0227,0.0226,0.0225,0,0,0.0373,0.0395,0.0399,0.0419,0.0422,0.0432,0.0443,0.0453,0.0473,0.0441,0.0457,0.042,0.0398,0.0384,0.0351,0.0328,0.0313,0.0294,0.0291,0.0276,0.0261,0.0264,0.0261,0.0294,0.0294,0.0294,0.0238,0,0.0405,0.045,0.0449,0.0492,0.0516,0.0502,0.0521,0.0524,0.052,0.0527,0.0481,0.0481,0.0431,0.0425,0.0394,0.0337,0.0309,0.033,0.0239,0.0237,0.0242,0.026,0.0262,0.0214,0.0235,0.0235,0.0234,0,0.044,0.047,0.0518,0.0556,0.0566,0.0584,0.0616,0.0633,0.0632,0.0627,0.061,0.0573,0.0539,0.0486,0.04,0.0417,0.0345,0.0291,0.0288,0.027,0.0236,0.0197,0.0208,0.023,0.023,0.0231,0.0231,0,0.0473,0.0518,0.0562,0.0574,0.061,0.0628,0.0648,0.0664,0.0698,0.0694,0.0708,0.0655,0.0636,0.054,0.0429,0.0414,0.0327,0.0292,0.0224,0.0223,0.0198,0.0195,0.0224,0.0224,0.0224,0.0225,0.0225,0,0.0512,0.0548,0.0582,0.0609,0.0669,0.0676,0.0739,0.075,0.078,0.083,0.0766,0.0784,0.0648,0.0579,0.046,0.0347,0.0351,0.0237,0.0213,0.0218,0.0218,0.0209,0.0208,0.0222,0.0223,0.0223,0.0224,0,0.0541,0.0561,0.0618,0.0666,0.0686,0.0732,0.0804,0.0855,0.087,0.0926,0.0926,0.0887,0.0807,0.0663,0.0517,0.0404,0.0282,0.0235,0.0251,0.0231,0.018,0.0182,0.0153,0.0153,0.0152,0.0152,0.0152,0,0.0561,0.0592,0.0662,0.0704,0.0728,0.0798,0.0853,0.0897,0.096,0.0995,0.103,0.097,0.0953,0.0747,0.054,0.0342,0.0302,0.0202,0.0172,0.0195,0.0175,0.0177,0.018,0.0153,0.0153,0.0152,0.0152,0,0.0601,0.062,0.0669,0.0756,0.082,0.0904,0.0985,0.1049,0.1104,0.1159,0.1218,0.1205,0.1011,0.0828,0.0554,0.0406,0.0234,0.0194,0.0214,0.0181,0.0194,0.0174,0.0177,0.0151,0.0151,0.0152,0.0152,0.0152,0.0627,0.0667,0.073,0.0815,0.0893,0.0998,0.108,0.117,0.1283,0.1357,0.1347,0.1328,0.1098,0.0765,0.051,0.0235,0.026,0.0141,0.0142,0.0142,0.0163,0.0176,0.0133,0.0133,0.0133,0.0133,0.0133,0,0.0658,0.0709,0.0786,0.0887,0.0976,0.1019,0.1162,0.1236,0.1372,0.144,0.1489,0.1259,0.1054,0.0781,0.039,0.0162,0.012,0.0064,0.0065,0.0069,0.0071,0.0087,0.0038,0.0037,0.0036,0.0035,0,0,0.0676,0.0746,0.0787,0.0932,0.1013,0.114,0.1229,0.1336,0.1417,0.1488,0.1489,0.1454,0.1145,0.0832,0.0511,0.0282,0.022,0.0219,0.0324,0.0368,0.0373,0.0147,0.0181,0,0,0,0,0]}],[{"header":{"parameterUnit":"m.s-1","parameterCategory":2,"la1":30.2991,"la2":30.254,"lo1":-89.0895,"lo2":-89.0444,"dy":0.0017,"dx":0.0017,"nx":28,"ny":28,"refTime":"2025-04-05T03:00:00:Z","depth":"4","parameterNumber":2,"parameterNumberName":"U-component_of_CURRENTS"},"data":[0,0,0,0,0,0,0,0,0,0,0,0,0,0,0,0,0,0,0,0,0,0,0,0,0,0,0,0,0,0,0,0,0,0,0,0,0,0,0,0,0,0,0,0,0,0,0,0,0,0,0,0,0,0,0,0,0,0,0.16,0.16,0,0.1637,0.1637,0.1638,0.1677,0.1677,0.1678,0.1679,0.1737,0.1737,0.1738,0,0,0,0,0,0,0,0,0,0,0,0,0,0.1556,0.1556,0.16,0.16,0.1601,0.1637,0.1637,0.1638,0.1677,0.1677,0.1678,0.1679,0.1736,0.1737,0.1738,0,0,0,0,0,0,0,0,0,0,0,0,0,0.1581,0.1556,0.1599,0.1625,0.1628,0.1637,0.1637,0.1638,0.1676,0.1677,0.1678,0.1679,0.1736,0.1737,0.1739,0.1728,0,0,0.1743,0.1743,0,0,0,0,0,0,0,0,0.1579,0.1582,0.1621,0.1624,0.1627,0.1654,0.1643,0.1669,0.1676,0.1657,0.1679,0.168,0.1711,0.1715,0.1717,0.173,0.1733,0.1743,0.1744,0.1744,0.1745,0,0,0,0,0,0,0,0.1578,0.1581,0.1613,0.1622,0.1625,0.1633,0.1638,0.1648,0.1677,0.1659,0.1662,0.1668,0.1713,0.1716,0.1719,0.1734,0.1743,0.1744,0.1745,0.1746,0.1841,0.1843,0,0,0,0,0,0,0.1575,0.1579,0.1612,0.1614,0.1606,0.1633,0.1638,0.1643,0.1677,0.1683,0.1667,0.1669,0.1713,0.1717,0.1721,0.1798,0.1744,0.1746,0.1747,0.184,0.1842,0.1843,0,0,0,0,0,0,0.1574,0.1577,0.161,0.1599,0.1604,0.1633,0.1638,0.1644,0.168,0.1683,0.169,0.1702,0.1714,0.1719,0.1762,0.1797,0.1746,0.1748,0.1837,0.184,0.1842,0.1894,0,0,0,0,0,0,0.1572,0.1576,0.1596,0.1598,0.1604,0.1636,0.1638,0.1644,0.1681,0.1685,0.1715,0.1719,0.1715,0.176,0.1763,0.1798,0.1749,0.1835,0.1839,0.1842,0.189,0.1898,0.1905,0,0,0,0,0,0.157,0.1585,0.1597,0.1602,0.1624,0.1637,0.1641,0.1664,0.1682,0.17,0.1726,0.172,0.1783,0.1762,0.1766,0.1802,0.1834,0.1838,0.1841,0.1887,0.1897,0.1905,0,0,0,0,0,0,0.1578,0.1591,0.1603,0.1623,0.1641,0.1645,0.1669,0.1683,0.1716,0.1733,0.1737,0.1743,0.1795,0.1792,0.1769,0.184,0.1809,0.1814,0.1843,0.1852,0.1859,0.1858,0.175,0,0,0,0,0,0.1587,0.1606,0.1616,0.1638,0.1649,0.1666,0.1682,0.1697,0.1718,0.1736,0.1756,0.1782,0.1807,0.1826,0.1843,0.1878,0.1878,0.1906,0.1913,0.1919,0.1922,0.1961,0.1972,0.1856,0.1856,0.1856,0,0,0.1597,0.1608,0.1621,0.1642,0.1659,0.1677,0.1679,0.1711,0.1736,0.1735,0.1789,0.181,0.1823,0.1865,0.1888,0.1871,0.1952,0.1924,0.1929,0.1929,0.1966,0.1977,0.1987,0.1859,0.1858,0.1858,0,0,0.1612,0.1637,0.1654,0.1671,0.1701,0.1709,0.1726,0.175,0.1777,0.1821,0.1832,0.1876,0.1912,0.1928,0.1939,0.1997,0.1991,0.2011,0.2046,0.2085,0.2094,0.2103,0.2112,0.2121,0.2014,0.2014,0.2014,0,0.1629,0.1644,0.1663,0.1681,0.17,0.1727,0.1747,0.1773,0.1813,0.1841,0.185,0.1927,0.1939,0.1989,0.2011,0.2014,0.2027,0.201,0.2093,0.2102,0.211,0.2117,0.2126,0.2017,0.2016,0.2016,0.2016,0,0.1641,0.1669,0.1682,0.1713,0.1737,0.1762,0.1791,0.1833,0.1872,0.1897,0.197,0.1993,0.204,0.2054,0.205,0.2117,0.2104,0.2098,0.2068,0.2124,0.2129,0.2137,0.2021,0.202,0.2019,0.2018,0,0,0.1631,0.1681,0.1689,0.171,0.1757,0.1772,0.1827,0.1874,0.1919,0.1974,0.203,0.2084,0.2113,0.2127,0.2139,0.2169,0.2232,0.2163,0.2163,0.2166,0.2306,0.2154,0.2148,0.2248,0.225,0.2251,0.2285,0,0.1636,0.167,0.1698,0.1741,0.1759,0.1807,0.1851,0.1905,0.1961,0.2024,0.2073,0.2132,0.2136,0.217,0.2207,0.2229,0.2259,0.2222,0.2256,0.2257,0.211,0.2154,0.2257,0.2291,0.2293,0.2294,0.2295,0,0.1627,0.1654,0.1694,0.1752,0.1767,0.1804,0.1884,0.193,0.2022,0.2071,0.2149,0.2185,0.2255,0.2243,0.2319,0.2301,0.2313,0.232,0.2321,0.2165,0.212,0.2225,0.231,0.2309,0.2308,0.2307,0.2306,0,0.1587,0.1647,0.168,0.17,0.1772,0.1813,0.1863,0.1952,0.2003,0.2113,0.2161,0.2248,0.2299,0.234,0.2369,0.2357,0.2433,0.2413,0.2283,0.2272,0.2376,0.2367,0.2463,0.2463,0.2463,0.2462,0.2462,0,0.1557,0.1588,0.1672,0.1688,0.174,0.1802,0.1874,0.1941,0.2041,0.2094,0.219,0.2234,0.2331,0.2381,0.2394,0.2361,0.246,0.2291,0.2274,0.2396,0.2389,0.2381,0.2372,0.2464,0.2463,0.2463,0.2463,0,0.15,0.1555,0.1599,0.1688,0.1721,0.1763,0.1873,0.1916,0.2028,0.21,0.2138,0.2252,0.2308,0.2373,0.2435,0.2373,0.2367,0.2332,0.2454,0.2444,0.2171,0.2164,0.2176,0.2171,0.2166,0.2163,0.216,0,0.1468,0.1487,0.159,0.1619,0.1665,0.174,0.1782,0.1901,0.1943,0.2083,0.2096,0.22,0.2256,0.2221,0.2306,0.2313,0.229,0.2264,0.2213,0.2161,0.2145,0.2144,0.2143,0.2153,0.2152,0.2151,0.215,0,0.1408,0.1462,0.15,0.156,0.1613,0.1659,0.1732,0.175,0.187,0.1985,0.2002,0.2025,0.208,0.212,0.2146,0.215,0.2266,0.2219,0.2227,0.2179,0.2133,0.2122,0.2125,0.2135,0.2137,0.2138,0.2139,0,0.1371,0.1383,0.1442,0.1479,0.1541,0.155,0.1604,0.1636,0.1691,0.1834,0.1836,0.1944,0.2054,0.2036,0.2061,0.2052,0.2015,0.1938,0.196,0.1978,0.1898,0.181,0.1699,0,0,0,0,0,0.1321,0.1319,0.1351,0.1377,0.1431,0.1467,0.155,0.1603,0.1714,0.1675,0.175,0.1786,0.181,0.1875,0.1826,0.1981,0.2032,0.1914,0.1958,0.2053,0.207,0.1995,0,0,0,0,0,0,0.1285,0.1316,0.1315,0.1281,0.1281,0.1324,0.1373,0.1451,0.1436,0.1558,0.1586,0.1673,0.1735,0.1821,0.1791,0.1809,0.1797,0.1987,0.1982,0.2043,0.2059,0.2073,0.2001,0,0,0,0,0]},{"header":{"parameterUnit":"m.s-1","parameterCategory":2,"la1":30.2991,"la2":30.254,"lo1":-89.0895,"lo2":-89.0444,"dy":0.0017,"dx":0.0017,"nx":28,"ny":28,"refTime":"2025-04-05T03:00:00:Z","depth":"4","parameterNumber":3,"parameterNumberName":"V-component_of_CURRENTS"},"data":[0,0,0,0,0,0,0,0,0,0,0,0,0,0,0,0,0,0,0,0,0,0,0,0,0,0,0,0,0,0,0,0,0,0,0,0,0,0,0,0,0,0,0,0,0,0,0,0,0,0,0,0,0,0,0,0,0,0,0.0121,0.0121,0,0.0103,0.0102,0.0102,0.0086,0.0086,0.0086,0.0086,0.0052,0.0051,0.005,0,0,0,0,0,0,0,0,0,0,0,0,0,0.0121,0.0121,0.0121,0.012,0.012,0.0103,0.0102,0.0102,0.0086,0.0086,0.0086,0.0086,0.0052,0.0051,0.005,0,0,0,0,0,0,0,0,0,0,0,0,0,0.0113,0.0121,0.0121,0.0111,0.011,0.0103,0.0102,0.0102,0.0086,0.0086,0.0086,0.0086,0.0053,0.0051,0.005,0.0046,0,0,0.0047,0.0046,0,0,0,0,0,0,0,0,0.0113,0.0113,0.0112,0.0111,0.011,0.0097,0.009,0.0083,0.0086,0.0094,0.0086,0.0085,0.0066,0.0064,0.006,0.0045,0.0043,0.0046,0.0046,0.0045,0.0045,0,0,0,0,0,0,0,0.0114,0.0113,0.0113,0.0112,0.0111,0.01,0.0099,0.0088,0.0081,0.0094,0.0093,0.0092,0.0065,0.0061,0.0059,0.0043,0.0046,0.0045,0.0045,0.0044,0.0037,0.0037,0,0,0,0,0,0,0.0119,0.0114,0.0113,0.0112,0.0112,0.0101,0.0099,0.0101,0.0081,0.0078,0.0092,0.0091,0.0063,0.006,0.0058,0.0073,0.0045,0.0044,0.0043,0.0036,0.0037,0.0037,0,0,0,0,0,0,0.0119,0.0119,0.0114,0.0113,0.0112,0.0101,0.0103,0.0101,0.01,0.008,0.0077,0.0094,0.0063,0.0059,0.0057,0.0071,0.0044,0.0043,0.0036,0.0036,0.0037,0.009,0,0,0,0,0,0,0.0119,0.0119,0.0124,0.0114,0.0112,0.0117,0.0103,0.01,0.01,0.0099,0.0081,0.0077,0.0063,0.0059,0.0056,0.0069,0.0042,0.0035,0.0036,0.0037,0.0087,0.0092,0.0096,0,0,0,0,0,0.0119,0.0128,0.0125,0.0125,0.0118,0.0118,0.0116,0.0107,0.0101,0.0105,0.0094,0.0078,0.0062,0.0058,0.0054,0.0067,0.0034,0.0036,0.0037,0.0085,0.0091,0.0096,0,0,0,0,0,0,0.0128,0.0127,0.0123,0.013,0.0127,0.0115,0.0118,0.0112,0.0106,0.0104,0.0085,0.0081,0.0083,0.0067,0.0063,0.0067,0.0046,0.0046,0.0084,0.0089,0.0094,0.0101,0.0041,0,0,0,0,0,0.0133,0.014,0.0135,0.014,0.014,0.013,0.0129,0.0124,0.0116,0.0113,0.0102,0.009,0.0084,0.0081,0.007,0.0073,0.0051,0.0079,0.0083,0.0087,0.0091,0.0069,0.0072,0.0041,0.0041,0.0041,0,0,0.0138,0.0138,0.0141,0.0143,0.0139,0.0149,0.0129,0.0131,0.0141,0.0111,0.012,0.0105,0.0087,0.0092,0.0092,0.0082,0.0084,0.0089,0.0092,0.0094,0.0071,0.0074,0.0076,0.0042,0.0042,0.0042,0,0,0.0153,0.0151,0.0163,0.0166,0.0166,0.0162,0.0166,0.016,0.0159,0.0164,0.0146,0.014,0.013,0.0122,0.0117,0.0139,0.0108,0.0136,0.0167,0.0146,0.0149,0.015,0.0127,0.0126,0.014,0.014,0.014,0,0.0158,0.0174,0.0166,0.018,0.0188,0.0173,0.0191,0.0189,0.0183,0.0188,0.0174,0.0162,0.0145,0.0153,0.0161,0.015,0.013,0.015,0.0153,0.0154,0.0155,0.013,0.0129,0.0143,0.0142,0.0142,0.0142,0,0.0183,0.0197,0.0205,0.0221,0.0228,0.0239,0.0239,0.0243,0.0239,0.0238,0.0242,0.0216,0.0211,0.0204,0.0189,0.0193,0.0175,0.0159,0.014,0.0161,0.0134,0.0131,0.0147,0.0146,0.0145,0.0144,0,0,0.0193,0.0218,0.0222,0.0241,0.0252,0.0263,0.0279,0.0294,0.0315,0.0298,0.0315,0.0297,0.0282,0.0274,0.0251,0.0232,0.0219,0.0203,0.02,0.0182,0.0172,0.0157,0.0153,0.0204,0.0204,0.0204,0.015,0,0.0216,0.0255,0.026,0.03,0.0322,0.032,0.0343,0.0353,0.0357,0.0368,0.0338,0.0346,0.031,0.031,0.0285,0.0239,0.0215,0.0235,0.0152,0.0149,0.0136,0.015,0.0204,0.0148,0.0148,0.0147,0.0147,0,0.0239,0.0266,0.0309,0.0351,0.036,0.0383,0.0419,0.044,0.0449,0.045,0.0444,0.0419,0.0396,0.0356,0.0286,0.0301,0.0242,0.0197,0.0194,0.016,0.0131,0.0121,0.0142,0.0142,0.0143,0.0143,0.0143,0,0.0256,0.03,0.034,0.0354,0.0396,0.0417,0.0443,0.0468,0.05,0.0507,0.052,0.0483,0.047,0.0393,0.0301,0.0294,0.0212,0.019,0.0119,0.0117,0.0122,0.012,0.0133,0.0133,0.0133,0.0133,0.0133,0,0.0279,0.0312,0.0354,0.0378,0.0436,0.0453,0.0515,0.0531,0.0566,0.0607,0.0569,0.0579,0.0479,0.0418,0.0322,0.0218,0.0228,0.0127,0.0104,0.0145,0.0147,0.012,0.0119,0.0131,0.0132,0.0132,0.0132,0,0.0291,0.0317,0.0368,0.0422,0.0446,0.0489,0.0566,0.0611,0.0636,0.0682,0.0686,0.0656,0.0582,0.0469,0.0346,0.0255,0.0149,0.0105,0.0162,0.0143,0.0059,0.0062,0.0023,0.0022,0.0021,0.0021,0.002,0,0.03,0.0328,0.0401,0.044,0.0469,0.0538,0.0591,0.0643,0.0692,0.0727,0.0748,0.0698,0.0655,0.0481,0.0356,0.0174,0.014,0.0075,0.006,0.0067,0.0049,0.0053,0.0056,0.0019,0.0019,0.0018,0.0018,0,0.0318,0.0343,0.0387,0.0467,0.0529,0.0605,0.068,0.072,0.0776,0.0795,0.08,0.0712,0.0628,0.0489,0.035,0.0215,0.0112,0.0066,0.0066,0.0051,0.0061,0.0045,0.005,0.0016,0.0016,0.0016,0.0016,0,0.033,0.0361,0.0417,0.0489,0.057,0.0647,0.0689,0.0746,0.0797,0.0829,0.0829,0.0738,0.0695,0.051,0.0383,0.0252,0.0207,0.0142,0.0138,0.0139,0.0182,0.0213,0.0199,0,0,0,0,0,0.0337,0.0372,0.0436,0.0516,0.0597,0.0645,0.0739,0.0776,0.0824,0.0831,0.0833,0.0753,0.0578,0.0517,0.0384,0.035,0.0173,0.0185,0.0093,0.0001,0.0004,0.0033,0,0,0,0,0,0,0.0341,0.0396,0.043,0.0525,0.0581,0.0675,0.0735,0.077,0.0782,0.0806,0.0729,0.0693,0.0538,0.0651,0.0373,0.0336,0.0251,0.0113,0.0109,-0.0001,0.0002,0.0004,0.0036,0,0,0,0,0]}]]